NOAA 16 DEB, 42407

Orbit data source: Space-Track

NOAA 16 DEB, 42407 is space debris in SSO originally from a launch on Thu, 21 Sep 2000 UTC launched from the Air Force Western Test Range (AFWTR). Debris objects in space refer to the collection of defunct objects orbiting the Earth. Examples of debris include non-operational satellites, rocket bodies, and fragments generated from explosions, collisions, or faulty payload assembly.

Loading next visibility...
Identifier
42407, 2000-055TB
Orbit
SSO
Country
Flag of USUS
Related business
Manufacturer
Unknown
Mission
Spacecraft
Bus & Motor
Unknown
Mass
Unknown
Launch date (UTC)
2000-09-21 (25 years ago)
Launch vehicle
Unknown
Launch site
Air Force Western Test Range (AFWTR)
Object type
Payload
Rocket body
Debris
Shape & HBR
Unknown shape, 0.1 m
Radar Cross Section
Small (<0.1 m²)

Expand to show TLE details & history
Last TLE update: 14 hours ago

TLE from 14 hours ago
0 NOAA 16 DEB
1 42407U 00055TB  25292.96110969  .00071227  00000-0  11373-1 0  9993
2 42407  98.9704 107.2252 0012104 332.2724  27.7834 14.71432697494941
Epoch: 2025-10-19T23:03Z
TLE epoch observation values (Epoch: 2025-10-19T23:03:59.877Z)
Latitude
0.00007°
Longitude
92.55543°
Altitude
651.941 km
Speed
7.536 km/s
True Right ascension
07h 08m 54s
True Declination
0° 00' 00"
Sunlit
Object was in daylight at epoch
Visualization orbit readout
Latitude
Unknown
Longitude
Unknown
Altitude
Unknown
Speed
Unknown
Apparent Right ascension
Unknown
Apparent Declination
Unknown
Sunlit
N/A
Visualization observer readout
Local Sidereal Time
08:25:33
Azimuth
Unknown
Elevation
Unknown
Doppler factor
Unknown
Orbital elements
Apogee altitude
662.112 km
Perigee altitude
645.09 km
Semi-major axis
7,031.738 km
Eccentricity
0.00121
Inclination
98.9704°
RAAN
107.2252°
Arg. of periapsis
332.2724°
True anomaly
27.84814°
Mean anomaly
27.7834°
Eccentric anomaly
27.81576°
Mean motion
3.68086 °/min
Orbital period
97.8 mins
BSTAR
0.011373
Loading maneuver chart data...
Computing Atmospheric mass density...
Loading historical data...
Loading historical data...
Loading historical data...
Loading historical data...
Loading historical data...
Loading historical data...
Loading historical data...

Documentation

Showing up to 5 results
|